Date String (YYYY-MM-DD hh:mm:ss) UTC,Instrument flags,Ambient pressure (hPa),Sample flow (lpm),Bypass flow (lpm),Sample temperature (°C),Ambient temperature (°C),ASC tube jacket temperature (°C),LED temperature (°C),Box temperature (°C),Sample RH (%),Span deviation,Mass concentration (μg/m³),Mass concentration (μg/m³),Mass concentration (μg/m³)
DateTimeUTC,F1_M11,P_M11,Q1_M11,Q2_M11,T1_M11,T2_M11,T3_M11,T4_M11,T5_M11,U1_M11,ZSPAN_M11,X0_M11,X2_M11,X1_M11
2022-02-06 10:00:00,,0830.2,5.00,0.00,22.7,23.1,00.0,31.5,24.6,10.2,0000.0,0002.64,0001.68,0001.25
2022-02-06 10:01:00,,0830.2,5.00,0.00,22.7,22.9,00.0,31.5,24.6,10.0,0000.0,0002.69,0001.72,0001.28
2022-02-06 10:02:00,,0830.3,5.00,0.00,22.7,22.7,00.0,31.5,24.6,10.0,0000.0,0002.72,0001.70,0001.29
2022-02-06 10:03:00,,0830.3,5.00,0.00,22.7,22.5,00.0,31.5,24.5,10.0,0000.0,0002.72,0001.68,0001.27
2022-02-06 10:04:00,,0830.3,4.99,0.00,22.7,22.4,00.0,31.5,24.4,10.1,0000.0,0002.64,0001.65,0001.26
2022-02-06 10:05:00,,0830.3,5.01,0.00,22.6,22.3,00.0,31.5,24.4,10.2,0000.0,0002.42,0001.54,0001.21
2022-02-06 10:06:00,,0830.4,5.00,0.00,22.6,22.2,00.0,31.5,24.4,10.2,0000.0,0002.37,0001.50,0001.16
2022-02-06 10:07:00,,0830.4,5.01,0.00,22.6,22.1,00.0,31.6,24.4,10.2,0000.0,0002.36,0001.50,0001.15
2022-02-06 10:08:00,,0830.4,4.99,0.00,22.6,22.1,00.0,31.6,24.4,10.3,0000.0,0002.40,0001.51,0001.12
2022-02-06 10:09:00,,0830.4,5.00,0.00,22.6,22.0,00.0,31.6,24.4,10.2,0000.0,0002.34,0001.46,0001.06
2022-02-06 10:10:00,,0830.4,5.01,0.00,22.6,22.0,00.0,31.6,24.4,10.2,0000.0,0002.27,0001.39,0001.00
2022-02-06 10:11:00,,0830.4,4.98,0.00,22.6,22.0,00.0,31.5,24.4,10.5,0000.0,0002.22,0001.35,0000.94
2022-02-06 10:12:00,,0830.4,5.01,0.00,22.6,21.9,00.0,31.5,24.3,10.5,0000.0,0002.30,0001.29,0000.89
2022-02-06 10:13:00,,0830.4,5.00,0.00,22.6,21.9,00.0,31.5,24.3,10.4,0000.0,0002.79,0001.26,0000.85
2022-02-06 10:14:00,,0830.4,5.00,0.00,22.6,21.9,00.0,31.5,24.3,10.5,0000.0,0002.64,0001.21,0000.82
2022-02-06 10:15:00,,0830.3,5.01,0.00,22.5,21.9,00.0,31.5,24.3,10.5,0000.0,0002.73,0001.18,0000.77
2022-02-06 10:16:00,,0830.4,5.00,0.00,22.5,21.9,00.0,31.5,24.3,10.5,0000.0,0002.80,0001.20,0000.76
2022-02-06 10:17:00,,0830.3,4.99,0.00,22.6,21.9,00.0,31.5,24.3,10.5,0000.0,0002.94,0001.22,0000.76
2022-02-06 10:18:00,,0830.4,5.01,0.00,22.5,21.9,00.0,31.5,24.3,10.6,0000.0,0002.99,0001.20,0000.76
2022-02-06 10:19:00,,0830.5,4.99,0.00,22.5,21.8,00.0,31.5,24.3,10.7,0000.0,0003.04,0001.21,0000.75
2022-02-06 10:20:00,,0830.5,5.01,0.00,22.5,21.8,00.0,31.5,24.3,10.5,0000.0,0003.05,0001.22,0000.76
2022-02-06 10:21:00,,0830.4,4.98,0.00,22.5,21.8,00.0,31.5,24.3,10.5,0000.0,0003.08,0001.24,0000.77
2022-02-06 10:22:00,,0830.5,5.01,0.00,22.5,21.8,00.0,31.5,24.3,10.6,0000.0,0003.21,0001.25,0000.77
2022-02-06 10:23:00,,0830.5,4.98,0.00,22.5,21.8,00.0,31.5,24.3,10.6,0000.0,0003.24,0001.23,0000.77
2022-02-06 10:24:00,,0830.6,5.02,0.00,22.5,21.7,00.0,31.5,24.3,10.9,0000.0,0002.65,0001.27,0000.79
2022-02-06 10:25:00,,0830.5,4.98,0.00,22.5,21.7,00.0,31.5,24.2,11.1,0000.0,0003.01,0001.35,0000.84
2022-02-06 10:26:00,,0830.6,5.01,0.00,22.5,21.6,00.0,31.5,24.2,11.1,0000.0,0003.18,0001.42,0000.89
2022-02-06 10:27:00,,0830.6,5.00,0.00,22.4,21.6,00.0,31.5,24.1,11.2,0000.0,0003.18,0001.42,0000.92
2022-02-06 10:28:00,,0830.7,5.00,0.00,22.4,21.6,00.0,31.4,24.0,11.4,0000.0,0003.10,0001.40,0000.94
2022-02-06 10:29:00,,0830.7,5.00,0.00,22.4,21.6,00.0,31.4,24.1,11.4,0000.0,0003.16,0001.40,0000.96
2022-02-06 10:30:00,,0830.7,5.02,0.00,22.4,21.6,00.0,31.4,24.0,11.4,0000.0,0003.07,0001.38,0000.97
2022-02-06 10:31:00,,0830.7,4.99,0.00,22.3,21.6,00.0,31.4,24.0,11.5,0000.0,0003.27,0001.40,0000.99
2022-02-06 10:32:00,,0830.7,4.99,0.00,22.3,21.6,00.0,31.4,24.0,11.6,0000.0,0003.41,0001.46,0001.02
2022-02-06 10:33:00,,0830.8,5.00,0.00,22.3,21.5,00.0,31.4,23.9,11.8,0000.0,0003.41,0001.49,0001.07
2022-02-06 10:34:00,,0830.9,5.02,0.00,22.3,21.9,00.0,31.4,24.1,12.0,0000.0,0003.42,0001.56,0001.13
2022-02-06 10:35:00,,0830.9,5.00,0.00,22.4,22.6,00.0,31.4,24.3,12.2,0000.0,0003.51,0001.61,0001.16
2022-02-06 10:36:00,,0830.9,5.01,0.00,22.6,23.1,00.0,31.5,24.5,12.2,0000.0,0003.26,0001.56,0001.15
2022-02-06 10:37:00,,0830.9,4.99,0.00,22.6,22.9,00.0,31.5,24.5,12.2,0000.0,0003.01,0001.52,0001.13
2022-02-06 10:38:00,,0830.9,5.00,0.00,22.6,22.7,00.0,31.5,24.5,12.2,0000.0,0003.08,0001.52,0001.12
2022-02-06 10:39:00,,0830.9,5.00,0.00,22.6,22.6,00.0,31.5,24.5,12.1,0000.0,0003.10,0001.57,0001.13
2022-02-06 10:40:00,,0830.9,5.00,0.00,22.6,22.4,00.0,31.5,24.4,12.1,0000.0,0002.94,0001.59,0001.13
2022-02-06 10:41:00,,0830.9,5.00,0.00,22.6,22.3,00.0,31.5,24.4,12.3,0000.0,0002.96,0001.59,0001.13
2022-02-06 10:42:00,,0830.9,5.02,0.00,22.6,22.2,00.0,31.5,24.3,12.3,0000.0,0002.87,0001.61,0001.14
2022-02-06 10:43:00,,0830.9,5.00,0.00,22.6,22.1,00.0,31.5,24.3,12.4,0000.0,0002.79,0001.58,0001.14
2022-02-06 10:44:00,,0830.9,5.00,0.00,22.6,22.0,00.0,31.5,24.3,12.4,0000.0,0002.71,0001.57,0001.13
2022-02-06 10:45:00,,0830.9,5.00,0.00,22.6,22.0,00.0,31.5,24.3,12.5,0000.0,0002.64,0001.54,0001.10
2022-02-06 10:46:00,,0830.8,4.99,0.00,22.5,21.9,00.0,31.5,24.2,12.5,0000.0,0002.54,0001.46,0001.07
2022-02-06 10:47:00,,0830.8,5.00,0.00,22.5,21.8,00.0,31.5,24.2,12.5,0000.0,0002.65,0001.46,0001.06
2022-02-06 10:48:00,,0830.7,5.00,0.00,22.5,21.8,00.0,31.5,24.1,12.5,0000.0,0002.65,0001.47,0001.04
2022-02-06 10:49:00,,0830.7,4.99,0.00,22.5,21.7,00.0,31.5,24.1,12.5,0000.0,0002.44,0001.42,0001.03
2022-02-06 10:50:00,,0830.7,5.01,0.00,22.4,21.7,00.0,31.5,24.1,12.5,0000.0,0002.37,0001.39,0001.02
2022-02-06 10:51:00,,0830.7,5.00,0.00,22.4,21.7,00.0,31.5,24.1,12.5,0000.0,0002.38,0001.37,0001.00
2022-02-06 10:52:00,,0830.7,5.00,0.00,22.4,21.6,00.0,31.5,24.1,12.5,0000.0,0002.33,0001.34,0000.98
2022-02-06 10:53:00,,0830.8,5.00,0.00,22.4,21.6,00.0,31.5,24.1,12.5,0000.0,0002.36,0001.34,0000.96
2022-02-06 10:54:00,,0830.9,5.01,0.00,22.4,21.6,00.0,31.4,24.1,12.4,0000.0,0002.29,0001.33,0000.94
2022-02-06 10:55:00,,0830.9,5.00,0.00,22.4,21.6,00.0,31.4,24.1,12.5,0000.0,0002.30,0001.33,0000.93
2022-02-06 10:56:00,,0831.0,5.00,0.00,22.4,21.6,00.0,31.4,24.1,12.5,0000.0,0002.35,0001.33,0000.92
2022-02-06 10:57:00,,0831.0,5.00,0.00,22.4,21.5,00.0,31.4,24.0,12.5,0000.0,0002.27,0001.33,0000.91
2022-02-06 10:58:00,,0831.0,5.00,0.00,22.3,21.5,00.0,31.4,24.0,12.6,0000.0,0002.44,0001.31,0000.91
2022-02-06 10:59:00,,0831.1,4.99,0.00,22.3,21.5,00.0,31.4,24.0,12.5,0000.0,0002.55,0001.32,0000.90
